Edinburgh Airport, United Kingdom

11:27 PM GMT on November 24, 2017 (GMT +0000)
Edinburgh Airport

Weather History for EGPH - December, 2011

Change the Weather History Date:

Thursday, December 1, 2011

  Actual Average Record
Temperature  
Mean Temperature 40 °F -  
Max Temperature 48 °F 44 °F 55 °F (2000)
Min Temperature 33 °F 34 °F 21 °F (2010)
Degree Days  
Heating Degree Days 24    
Moisture  
Dew Point 36 °F    
Average Humidity 88    
Maximum Humidity 93    
Minimum Humidity 81    
Precipitation  
Precipitation 0.00 in 0.08 in - ()
Sea Level Pressure  
Sea Level Pressure 29.49 in    
Wind  
Wind Speed 14 mph ()    
Max Wind Speed 28 mph    
Max Gust Speed 40 mph    
Visibility 6.0 miles    
Events Rain    
Averages and records for this station are not official NWS values.
T = Trace of Precipitation, MM = Missing Value Source: Averaged Metar Reports

Daily Weather History Graph

Daily Weather History Graph

Search for Another Location

Airport or City:

Trip Planner

Search our weather history database for the weather conditions in past years. The results will help you decide how hot, cold, wet, or windy it might be!

Date:

Astronomy

Dec. 01, 2011 Rise Set
Actual Time 8:19 AM GMT 3:44 PM GMT
Civil Twilight 7:33 AM GMT 4:30 PM GMT
Nautical Twilight 6:46 AM GMT 5:17 PM GMT
Astronomical Twilight 6:01 AM GMT 6:02 PM GMT
Moon 12:13 PM GMT (12/1) 11:18 PM GMT (12/1)
Length of Visible Light 8h 56m
Length of Day
7h 25m
Waxing Crescent, 41% of the Moon is Illuminated
Dec 1
Waxing Crescent
Dec 2
First Quarter
Dec 10
Full
Dec 18
Last Quarter
Dec 24
New

Hourly Weather History & Observations

Time (GMT) Temp. Windchill Dew Point Humidity Pressure Visibility Wind Dir Wind Speed Gust Speed Precip Events Conditions
12:20 AM 48.2 °F - 44.6 °F 87% 29.18 in 4.3 mi SSW 27.6 mph - N/A Rain Rain
12:50 AM 48.2 °F - 44.6 °F 87% 29.15 in 4.3 mi SSW 24.2 mph 40.3 mph N/A Rain Rain
1:20 AM 44.6 °F 35.1 °F 42.8 °F 93% 29.15 in 3.7 mi SW 27.6 mph - N/A Rain Rain
1:50 AM 42.8 °F 34.5 °F 39.2 °F 87% 29.21 in 6.2 mi WSW 18.4 mph - N/A Rain Light Rain
2:20 AM 42.8 °F 34.8 °F 39.2 °F 87% 29.21 in 6.2 mi WSW 17.3 mph - N/A Rain Light Rain
2:50 AM 42.8 °F 35.1 °F 39.2 °F 87% 29.24 in 6.2 mi WSW 16.1 mph - N/A   Partly Cloudy
3:20 AM 42.8 °F 35.8 °F 39.2 °F 87% 29.27 in 6.2 mi WSW 13.8 mph - N/A   Unknown
3:50 AM 42.8 °F 34.8 °F 39.2 °F 87% 29.30 in 6.2 mi WSW 17.3 mph - N/A Rain Light Rain
4:20 AM 42.8 °F 34.5 °F 39.2 °F 87% 29.30 in 6.2 mi West 18.4 mph 29.9 mph N/A Rain Rain Showers
4:50 AM 41.0 °F 32.2 °F 37.4 °F 87% 29.33 in 6.2 mi WSW 18.4 mph - N/A Rain Rain Showers
5:20 AM 41.0 °F 32.8 °F 35.6 °F 81% 29.33 in 6.2 mi WSW 16.1 mph - N/A Rain Light Rain Showers
5:50 AM 39.2 °F 30.2 °F 35.6 °F 87% 29.36 in 6.2 mi WSW 17.3 mph - N/A Rain Light Rain Showers
6:20 AM 39.2 °F 30.8 °F 33.8 °F 81% 29.39 in 6.2 mi WSW 15.0 mph - N/A Rain Light Rain Showers
6:50 AM 39.2 °F 30.8 °F 33.8 °F 81% 29.39 in - WSW 15.0 mph - N/A   Clear
7:20 AM 39.2 °F 31.6 °F 33.8 °F 81% 29.42 in - WSW 12.7 mph - N/A   Clear
7:50 AM 39.2 °F 31.2 °F 35.6 °F 87% 29.44 in 6.2 mi WSW 13.8 mph 25.3 mph N/A Rain Light Rain
8:20 AM 39.2 °F 30.8 °F 35.6 °F 87% 29.47 in 6.2 mi WSW 15.0 mph - N/A   Scattered Clouds
8:50 AM 37.4 °F 30.8 °F 35.6 °F 93% 29.47 in 6.2 mi WSW 9.2 mph - N/A   Scattered Clouds
9:20 AM 39.2 °F 31.6 °F 35.6 °F 87% 29.50 in 6.2 mi WSW 12.7 mph - N/A   Scattered Clouds
9:50 AM 39.2 °F 32.0 °F 35.6 °F 87% 29.50 in 6.2 mi WSW 11.5 mph - N/A   Scattered Clouds
10:20 AM 41.0 °F 33.9 °F 37.4 °F 87% 29.50 in 6.2 mi WSW 12.7 mph - N/A   Scattered Clouds
10:50 AM 41.0 °F 33.9 °F 37.4 °F 87% 29.53 in 6.2 mi SW 12.7 mph - N/A   Scattered Clouds
11:20 AM 41.0 °F 33.9 °F 37.4 °F 87% 29.53 in 6.2 mi SW 12.7 mph - N/A   Scattered Clouds
11:50 AM 42.8 °F 36.2 °F 39.2 °F 87% 29.53 in 6.2 mi SW 12.7 mph - N/A   Partly Cloudy
12:20 PM 42.8 °F 36.6 °F 39.2 °F 87% 29.53 in 6.2 mi WSW 11.5 mph - N/A   Scattered Clouds
12:50 PM 42.8 °F 36.2 °F 37.4 °F 81% 29.56 in 6.2 mi SW 12.7 mph - N/A   Scattered Clouds
1:20 PM 42.8 °F 36.2 °F 37.4 °F 81% 29.56 in 6.2 mi SW 12.7 mph - N/A   Scattered Clouds
1:50 PM 41.0 °F 33.9 °F 37.4 °F 87% 29.56 in 6.2 mi WSW 12.7 mph - N/A   Scattered Clouds
2:20 PM 41.0 °F 34.3 °F 37.4 °F 87% 29.56 in 6.2 mi SW 11.5 mph - N/A   Scattered Clouds
2:50 PM 41.0 °F 34.3 °F 37.4 °F 87% 29.56 in 6.2 mi SW 11.5 mph - N/A Rain Light Rain
3:20 PM 41.0 °F 35.2 °F 37.4 °F 87% 29.56 in 6.2 mi SW 9.2 mph - N/A   Scattered Clouds
3:50 PM 39.2 °F 35.0 °F 37.4 °F 93% 29.59 in 6.2 mi WSW 5.8 mph - N/A   Partly Cloudy
4:20 PM 39.2 °F 34.2 °F 35.6 °F 87% 29.59 in 6.2 mi WSW 6.9 mph - N/A   Partly Cloudy
4:50 PM 39.2 °F 35.0 °F 35.6 °F 87% 29.62 in - WSW 5.8 mph - N/A   Clear
5:20 PM 37.4 °F 32.1 °F 35.6 °F 93% 29.62 in - SW 6.9 mph - N/A   Clear
5:50 PM 37.4 °F 30.8 °F 35.6 °F 93% 29.62 in 6.2 mi WSW 9.2 mph - N/A   Scattered Clouds
6:20 PM 35.6 °F 28.6 °F 33.8 °F 93% 29.62 in 6.2 mi WSW 9.2 mph - N/A   Scattered Clouds
6:50 PM 37.4 °F 32.8 °F 35.6 °F 93% 29.62 in 6.2 mi West 5.8 mph - N/A   Partly Cloudy
7:20 PM 35.6 °F 30.7 °F 33.8 °F 93% 29.62 in - WSW 5.8 mph - N/A   Clear
7:50 PM 35.6 °F 31.7 °F 33.8 °F 93% 29.65 in - WSW 4.6 mph - N/A   Clear
8:20 PM 35.6 °F 31.7 °F 33.8 °F 93% 29.65 in - WSW 4.6 mph - N/A   Clear
8:50 PM 33.8 °F 27.7 °F 32.0 °F 93% 29.65 in - WSW 6.9 mph - N/A   Clear
9:20 PM 33.8 °F 27.7 °F 32.0 °F 93% 29.65 in - WSW 6.9 mph - N/A   Clear
9:50 PM 35.6 °F 29.9 °F 33.8 °F 93% 29.65 in - West 6.9 mph - N/A   Clear
10:20 PM 35.6 °F 31.7 °F 32.0 °F 87% 29.65 in - West 4.6 mph - N/A   Clear
10:50 PM 33.8 °F 30.8 °F 32.0 °F 93% 29.65 in - Variable 3.5 mph - N/A   Clear
11:20 PM 35.6 °F 30.7 °F 32.0 °F 87% 29.68 in - West 5.8 mph - N/A   Clear
11:50 PM 35.6 °F 29.9 °F 32.0 °F 87% 29.68 in 6.2 mi West 6.9 mph - N/A   Partly Cloudy